Date String (YYYY-MM-DD hh:mm:ss) UTC,Instrument flags,Ambient pressure (hPa),Sample flow (lpm),Bypass flow (lpm),Sample temperature (°C),Ambient temperature (°C),ASC tube jacket temperature (°C),LED temperature (°C),Box temperature (°C),Sample RH (%),Span deviation,Mass concentration (μg/m³),Mass concentration (μg/m³),Mass concentration (μg/m³)
DateTimeUTC,F1_M11,P_M11,Q1_M11,Q2_M11,T1_M11,T2_M11,T3_M11,T4_M11,T5_M11,U1_M11,ZSPAN_M11,X2_M11,X0_M11,X1_M11
2021-11-29 06:00:00,,0829.3,4.98,0.00,29.5,28.6,00.0,38.6,31.2,09.2,0000.0,0000.59,0001.37,0000.32
2021-11-29 06:01:00,,0829.2,5.01,0.00,29.5,28.6,00.0,38.6,31.2,09.3,0000.0,0000.55,0001.88,0000.32
2021-11-29 06:02:00,,0829.3,4.98,0.00,29.5,28.6,00.0,38.6,31.2,09.3,0000.0,0000.53,0002.26,0000.32
2021-11-29 06:03:00,,0829.4,5.02,0.00,29.5,28.5,00.0,38.6,31.1,09.4,0000.0,0000.50,0002.16,0000.32
2021-11-29 06:04:00,,0829.3,4.99,0.00,29.5,28.6,00.0,38.6,31.2,09.4,0000.0,0000.49,0002.01,0000.32
2021-11-29 06:05:00,,0829.3,5.01,0.00,29.5,28.6,00.0,38.6,31.2,09.3,0000.0,0000.52,0002.10,0000.32
2021-11-29 06:06:00,,0829.3,5.00,0.00,29.5,28.6,00.0,38.6,31.2,09.3,0000.0,0000.53,0002.12,0000.32
2021-11-29 06:07:00,,0829.4,5.00,0.00,29.5,28.6,00.0,38.6,31.2,09.3,0000.0,0000.52,0002.11,0000.32
2021-11-29 06:08:00,,0829.3,5.00,0.00,29.5,28.6,00.0,38.6,31.2,09.3,0000.0,0000.52,0002.18,0000.32
2021-11-29 06:09:00,,0829.4,4.99,0.00,29.5,28.6,00.0,38.6,31.2,09.2,0000.0,0000.55,0002.26,0000.32
2021-11-29 06:10:00,,0829.3,5.01,0.00,29.5,28.6,00.0,38.6,31.2,09.3,0000.0,0000.54,0002.24,0000.32
2021-11-29 06:11:00,,0829.3,5.00,0.00,29.5,28.6,00.0,38.6,31.3,09.3,0000.0,0000.52,0002.17,0000.32
2021-11-29 06:12:00,,0829.4,5.00,0.00,29.5,28.7,00.0,38.6,31.3,09.3,0000.0,0000.54,0001.76,0000.33
2021-11-29 06:13:00,,0829.3,5.00,0.00,29.6,28.7,00.0,38.6,31.3,09.3,0000.0,0000.57,0001.33,0000.32
2021-11-29 06:14:00,,0829.3,5.01,0.00,29.6,28.7,00.0,38.6,31.3,09.3,0000.0,0000.57,0001.25,0000.31
2021-11-29 06:15:00,,0829.3,4.99,0.00,29.6,28.7,00.0,38.6,31.3,09.3,0000.0,0000.55,0001.20,0000.31
2021-11-29 06:16:00,,0829.4,5.01,0.00,29.6,28.7,00.0,38.6,31.3,09.3,0000.0,0000.54,0001.15,0000.31
2021-11-29 06:17:00,,0829.4,5.01,0.00,29.6,28.7,00.0,38.6,31.3,09.3,0000.0,0000.54,0001.15,0000.31
2021-11-29 06:18:00,,0829.3,4.99,0.00,29.6,28.7,00.0,38.6,31.3,09.2,0000.0,0000.54,0001.15,0000.31
2021-11-29 06:19:00,,0829.4,5.00,0.00,29.6,28.7,00.0,38.6,31.3,09.2,0000.0,0000.54,0001.09,0000.31
2021-11-29 06:20:00,,0829.4,5.00,0.00,29.6,28.7,00.0,38.6,31.3,09.2,0000.0,0000.51,0000.96,0000.31
2021-11-29 06:21:00,,0829.4,5.01,0.00,29.6,28.7,00.0,38.6,31.3,09.2,0000.0,0000.52,0000.98,0000.31
2021-11-29 06:22:00,,0829.5,5.01,0.00,29.6,28.7,00.0,38.6,31.3,09.3,0000.0,0000.57,0001.14,0000.31
2021-11-29 06:23:00,,0829.5,4.99,0.00,29.6,28.7,00.0,38.6,31.3,09.2,0000.0,0000.55,0001.10,0000.31
2021-11-29 06:24:00,,0829.5,5.02,0.00,29.6,28.7,00.0,38.6,31.3,09.2,0000.0,0000.52,0000.98,0000.31
2021-11-29 06:25:00,,0829.4,4.99,0.00,29.6,28.7,00.0,38.6,31.3,09.2,0000.0,0000.50,0000.95,0000.31
2021-11-29 06:26:00,,0829.4,5.01,0.00,29.6,28.7,00.0,38.6,31.3,09.2,0000.0,0000.51,0000.95,0000.31
2021-11-29 06:27:00,,0829.5,5.00,0.00,29.6,28.7,00.0,38.6,31.3,09.2,0000.0,0000.51,0000.97,0000.31
2021-11-29 06:28:00,,0829.5,4.99,0.00,29.6,28.7,00.0,38.6,31.4,09.2,0000.0,0000.52,0001.01,0000.30
2021-11-29 06:29:00,,0829.4,5.00,0.00,29.6,28.7,00.0,38.6,31.3,09.2,0000.0,0000.51,0000.96,0000.30
2021-11-29 06:30:00,,0829.5,5.00,0.00,29.6,28.7,00.0,38.6,31.3,09.2,0000.0,0000.50,0000.92,0000.30
2021-11-29 06:31:00,,0829.5,5.00,0.00,29.6,28.7,00.0,38.6,31.3,09.2,0000.0,0000.50,0000.94,0000.30
2021-11-29 06:32:00,,0829.4,4.99,0.00,29.6,28.7,00.0,38.6,31.3,09.3,0000.0,0000.50,0000.95,0000.30
2021-11-29 06:33:00,,0829.5,5.00,0.00,29.6,28.6,00.0,38.6,31.3,09.3,0000.0,0000.47,0001.76,0000.30
2021-11-29 06:34:00,,0829.5,5.01,0.00,29.6,28.6,00.0,38.6,31.3,09.4,0000.0,0000.46,0001.81,0000.30
2021-11-29 06:35:00,,0829.5,5.01,0.00,29.5,28.6,00.0,38.6,31.2,09.4,0000.0,0000.49,0002.01,0000.29
2021-11-29 06:36:00,,0829.4,4.99,0.00,29.5,28.6,00.0,38.6,31.2,09.3,0000.0,0000.53,0002.27,0000.30
2021-11-29 06:37:00,,0829.5,5.00,0.00,29.5,28.6,00.0,38.6,31.2,09.4,0000.0,0000.54,0002.29,0000.31
2021-11-29 06:38:00,,0829.5,5.00,0.00,29.5,28.6,00.0,38.5,31.2,09.4,0000.0,0000.57,0002.33,0000.32
2021-11-29 06:39:00,,0829.4,5.00,0.00,29.5,28.6,00.0,38.5,31.2,09.5,0000.0,0000.57,0002.31,0000.32
2021-11-29 06:40:00,,0829.3,5.01,0.00,29.5,28.6,00.0,38.5,31.2,09.5,0000.0,0000.57,0002.32,0000.33
2021-11-29 06:41:00,,0829.3,5.00,0.00,29.5,28.6,00.0,38.5,31.2,09.5,0000.0,0000.58,0002.34,0000.33
2021-11-29 06:42:00,,0829.3,4.99,0.00,29.5,28.6,00.0,38.5,31.2,09.5,0000.0,0000.59,0002.47,0000.33
2021-11-29 06:43:00,,0829.3,5.02,0.00,29.5,28.6,00.0,38.5,31.2,09.5,0000.0,0000.61,0002.66,0000.34
2021-11-29 06:44:00,,0829.2,4.99,0.00,29.5,28.6,00.0,38.5,31.2,09.5,0000.0,0000.62,0001.70,0000.33
2021-11-29 06:45:00,,0829.3,4.99,0.00,29.5,28.6,00.0,38.5,31.2,09.5,0000.0,0000.64,0001.71,0000.34
2021-11-29 06:46:00,,0829.2,5.00,0.00,29.5,28.6,00.0,38.5,31.2,09.4,0000.0,0000.64,0001.60,0000.35
2021-11-29 06:47:00,,0829.3,5.01,0.00,29.5,28.6,00.0,38.5,31.2,09.4,0000.0,0000.66,0001.61,0000.35
2021-11-29 06:48:00,,0829.2,4.99,0.00,29.5,28.6,00.0,38.5,31.2,09.4,0000.0,0000.69,0001.82,0000.35
2021-11-29 06:49:00,,0829.2,5.00,0.00,29.5,28.6,00.0,38.5,31.2,09.4,0000.0,0000.68,0002.23,0000.34
2021-11-29 06:50:00,,0829.2,4.99,0.00,29.5,28.6,00.0,38.5,31.2,09.4,0000.0,0000.70,0002.34,0000.34
2021-11-29 06:51:00,,0829.3,5.00,0.00,29.5,28.6,00.0,38.5,31.2,09.4,0000.0,0000.71,0002.44,0000.34
2021-11-29 06:52:00,,0829.2,5.00,0.00,29.5,28.6,00.0,38.5,31.2,09.4,0000.0,0000.70,0002.41,0000.35
2021-11-29 06:53:00,,0829.2,5.02,0.00,29.5,28.6,00.0,38.5,31.2,09.4,0000.0,0000.73,0002.38,0000.34
2021-11-29 06:54:00,,0829.2,4.99,0.00,29.5,28.6,00.0,38.5,31.2,09.4,0000.0,0000.73,0002.30,0000.34
2021-11-29 06:55:00,,0829.2,5.00,0.00,29.5,28.6,00.0,38.5,31.2,09.4,0000.0,0000.71,0002.25,0000.35
2021-11-29 06:56:00,,0829.1,5.00,0.00,29.5,28.6,00.0,38.5,31.2,09.4,0000.0,0000.71,0002.23,0000.34
2021-11-29 06:57:00,,0829.1,5.00,0.00,29.5,28.6,00.0,38.5,31.2,09.4,0000.0,0000.71,0002.25,0000.34
2021-11-29 06:58:00,,0829.1,5.01,0.00,29.5,28.6,00.0,38.5,31.2,09.4,0000.0,0000.67,0002.07,0000.34
2021-11-29 06:59:00,,0829.1,5.01,0.00,29.5,28.6,00.0,38.5,31.2,09.4,0000.0,0000.64,0001.91,0000.33
